sat.trackr.live / text

‹ back to catalog

SHIYAN-20A (SY-20A)

NORAD 54699 · 2022-169A

PAYLOAD ACTIVE UNKNOWN

§ Identity

Operator
Country
PRC
Launch date
2022-12-12
Launch site
JSC
Launch vehicle
Mass (kg)
RCS (m²)

External: N2YO · Heavens-Above · Gunter

§ Orbital elements

Epoch: 2026-09-20T23:33:52.908768Z

Period
100.73 min
Inclination
59.9954°
Eccentricity
0.0007011
Mean motion
14.29578728 rev/d
Perigee alt
788.1 km
Apogee alt
798.2 km
Semi-major
7,171.3 km
B*
3.9697e-5
RAAN
283.8428°
Arg perigee
3.1457°
Mean anomaly
356.9621°
Rev number
19,705

§ Raw data

SHIYAN-20A (SY-20A)1 54699U 22169A   26263.98186237 -.00000035  00000+0  39697-4 0  99922 54699  59.9954 283.8428 0007011   3.1457 356.9621 14.29578728197057

JSON: /api/v1/satellites/54699 · /tle

For live sub-satellite position, see the globe view (requires WebGL).

§ Visibility from observer

Set your observer location to see the next 7 days of passes ≥ 10°. The values pass through the URL so the page stays shareable.

No JS? Fill the form by hand. The geolocation button needs JavaScript.